Hourly Data Report for September 10, 2017

All times are specified in Local Standard Time (LST). Add 1 hour to adjust for Daylight Saving Time where and when it is observed.

POINT LEPREAU CS
NEW BRUNSWICK

45°04'23.040" N
66°26'57.090" W
6.00 m
8104201
71699
WPE

Download Data

Hourly Data (September 2017)
Hourly Data Report for September 10, 2017
Temp Definition
°C
Dew Point Temp Definition
°C
Rel Hum Definition
%
Wind Dir Definition
10's deg

Wind Spd Definition
km/h
Visibility Definition
km
Stn Press Definition
kPa
Hmdx Definition


Wind Chill Definition


Weather Definition


TIME
00:00 13.3 12.9 98 4 8   102.19     LegendNANA
01:00 13.1 12.8 98 1 10   102.19     LegendNANA
02:00 12.3 12.1 99 36 10   102.19     LegendNANA
03:00 12.4 12.0 97 3 10   102.20     LegendNANA
04:00 12.6 12.1 97 1 7   102.25     LegendNANA
05:00 12.5 11.9 97 3 3   102.28     LegendNANA
06:00 12.0 11.6 97 32 6   102.34     LegendNANA
07:00 12.4 11.6 95 34 9   102.37     LegendNANA
08:00 14.0 12.4 90 36 12   102.38     LegendNANA
09:00 15.3 12.8 85 1 11   102.39     LegendNANA
10:00 17.1 13.0 77 36 8   102.40     LegendNANA
11:00 18.3 11.7 65 1 9   102.34     LegendNANA
12:00 16.4 12.2 77 18 9   102.28     LegendNANA
13:00 18.2 13.1 72 22 10   102.22     LegendNANA
14:00 18.2 14.2 78 22 12   102.17     LegendNANA
15:00 16.5 12.3 76 22 10   102.10     LegendNANA
16:00 16.2 11.9 76 23 6   102.11     LegendNANA
17:00 15.4 12.8 84 17 1   102.10     LegendNANA
18:00 15.8 13.1 84 32 6   102.11     LegendNANA
19:00 14.7 10.6 76 32 9   102.12     LegendNANA
20:00 14.4 10.0 75 32 11   102.14     LegendNANA
21:00 13.9 10.0 77 33 12   102.11     LegendNANA
22:00 13.6 9.7 77 33 9   102.08     LegendNANA
23:00 13.4 9.0 75 32 10   102.08     LegendNANA

Notes on Data Quality.

Legend

  • E = Estimated
  • M = Missing
  • NA = Not Available
  • ‡ = Partner data that is not subject to review by the National Climate Archives
Date modified: